Location: Antioch Baptist Church
(32.6696°N, 85.7327°W)
Time: 21:06:07
(UTC+00:00)

ARIANE 5 R/B - Pass Details

Date: 14 July 2020
Orbit: 749 x 794 km, 98.6° (Epoch: 13 August)

Event Time Altitude Azimuth Distance (km) Brightness Sun altitude
Rises 09:35:55 0° 353° (N) 3,238 6.2 -13.3°
Reaches altitude 10° 09:38:51 10° 336° (NNW) 2,317 5.1 -12.8°
Maximum altitude 09:42:17 19° 293° (WNW) 1,802 4.1 -12.3°
Enters shadow 09:44:50 13° 259° (W) 2,106 4.2 -11.8°
